Regional Weather Roundup
Issued by NWS

Home | Current Version | Previous Version | Text Only | Print | Product List | Glossary Off
Versions: 1 2 3 4 5 6 7 8 9 10 11 12 13 14 15 16 17 18 19 20 21 22 23 24 25 26 27 28 29 30 31 32 33 34 35 36 37 38 39 40 41 42 43 44 45 46 47 48 49 50

000
ASUS43 KFSD 291510
RWRSD

WEATHER ROUNDUP FOR SOUTH DAKOTA
NATIONAL WEATHER SERVICE SIOUX FALLS SD
1000 AM CDT SUN MAY 29 2016

NOTE: "FAIR" INDICATES FEW OR NO CLOUDS BELOW 12,000 FEET WITH NO
SIGNIFICANT WEATHER AND/OR OBSTRUCTIONS TO VISIBILITY.


SDZ001>005-009-010-012>017-291600-
NORTHWEST AND NORTH CENTRAL SOUTH DAKOTA

CITY           SKY/WX    TMP DP  RH WIND       PRES   REMARKS
BUFFALO          N/A     65  47  52 VRB3      30.01S
FAITH            N/A     64  52  64 S7        30.07R
MOBRIDGE       MOSUNNY   64  53  67 CALM      30.04R
$$

SDZ012>016-024>037-041>051-057-063-072>074-291600-
SOUTHWEST AND SOUTH CENTRAL SOUTH DAKOTA

CITY           SKY/WX    TMP DP  RH WIND       PRES   REMARKS
RAPID CTY ARPT CLOUDY    63  48  58 W3        30.11R
PIERRE         SUNNY     66  53  63 W3        30.07R
CUSTER         SUNNY     57  44  62 E8        30.17S
ELLSWORTH AFB  CLOUDY    60  52  74 SW3       30.10F
PHILIP         SUNNY     67  56  67 E3        30.08S
PINE RIDGE     SUNNY     60  50  69 CALM      30.12R
WINNER         FAIR      66  54  65 NW3       30.10R
$$

SDZ004>011-016>023-039-040-291600-
NORTHEAST SOUTH DAKOTA

CITY           SKY/WX    TMP DP  RH WIND       PRES   REMARKS
ABERDEEN       SUNNY     69  56  62 NW12      30.01S
WATERTOWN      SUNNY     67  55  65 NW13      30.01R
BROOKINGS      SUNNY     66  55  67 NW10      30.03R
SISSETON         N/A     69  57  65 NW13      29.96R
$$

SDZ017-020-022-023-036>040-048>070-291600-
SOUTHEAST SOUTH DAKOTA

CITY           SKY/WX    TMP DP  RH WIND       PRES   REMARKS
SIOUX FALLS    MOSUNNY   69  60  73 W6        30.04R
HURON          SUNNY     68  57  68 NW8       30.04R
CHAMBERLAIN    SUNNY     67  59  75 NW6       30.08R
MITCHELL       SUNNY     68  58  70 NW9       30.06R
YANKTON        SUNNY     68  57  68 W10       30.05S
$$

ABBREVIATIONS USED IN REMARKS
   TC - TEMPERATURE IN CELSIUS
  WCI - WIND CHILL INDEX
   HX - HEAT INDEX
  VSB - VISIBILITY




USA.gov is the U.S. government's official web portal to all federal, state and local government web resources and services.